Pila San Vigilio, Italy 16 day weather forecast

Slopes altitude range 1200 m - 2750m

Number of lifts: 12 Pistes: 70km

In some cases the lift and piste totals shown are for the ski domain (e.g. Three Valleys) rather than individual resort (e.g. Courchevel)

Overview

The 16 day weather forecast is fully updated 4 times every day.

    • Wed 23 MAY 2018
    • Wed 23
    • 4C 7C
    • Thu 24 MAY 2018
    • Thu 24
    • 5C 9C
    • Fri 25 MAY 2018
    • Fri 25
    • 8C 12C
    • Sat 26 MAY 2018
    • Sat 26
    • 9C 12C
    • Sun 27 MAY 2018
    • Sun 27
    • 9C 14C
    • Mon 28 MAY 2018
    • Mon 28
    • 9C 12C
    • Tue 29 MAY 2018
    • Tue 29
    • 8C 11C
    • Wed 30 MAY 2018
    • Wed 30
    • 9C 13C
    • Thu 31 MAY 2018
    • Thu 31
    • 9C 14C
    • Fri 01 JUN 2018
    • Fri 01
    • 10C 15C
    • Sat 02 JUN 2018
    • Sat 02
    • 13C 18C
    • Sun 03 JUN 2018
    • Sun 03
    • 12C 16C
    • Mon 04 JUN 2018
    • Mon 04
    • 8C 12C
    • Tue 05 JUN 2018
    • Tue 05
    • 8C 17C
    • Wed 06 JUN 2018
    • Wed 06
    • 6C 11C
    • Thu 07 JUN 2018
    • Thu 07
    • 7C 16C

Date:

Time Type 0°C level Temp Chill Snow Cloud Speed Gust Dir Press
3:00 2816m 1°C 1_3 0cm 97% 3mph 3mph 1017mB
6:00 2814m 1°C 1_1 0cm 94% 1mph 1mph 1017mB
9:00 2917m 4°C 4_4 0cm 69% 4mph 5mph 1017mB
12:00 3116m 7°C 7_6 0cm 76% 6mph 7mph 1016mB
15:00 3208m 7°C 7_6 0cm 97% 6mph 7mph 1016mB
18:00 3198m 7°C 7_4 0cm 97% 4mph 6mph 1017mB
21:00 3139m 3°C 3_3 0cm 94% 3mph 3mph 1019mB
0:00 3117m 3°C 3_4 0cm 95% 4mph 4mph 1019mB
3:00 3027m 2°C 2_5 0cm 78% 5mph 5mph 1019mB
6:00 3129m 0°C 0_3 0cm 67% 3mph 3mph 1019mB
9:00 3170m 5°C 5_3 0cm 62% 3mph 2mph 1019mB
12:00 3334m 9°C 9_3 0cm 69% 3mph 2mph 1017mB
15:00 3498m 9°C 9_1 0cm 94% 1mph 1mph 1016mB
18:00 3591m 10°C 10_2 0cm 95% 2mph 2mph 1017mB
21:00 3554m 4°C 4_6 0cm 88% 6mph 7mph 1020mB
0:00 3605m 4°C 4_6 0cm 91% 6mph 6mph 1020mB
3:00 3621m 4°C 4_6 0cm 94% 6mph 7mph 1019mB
6:00 3677m 4°C 4_4 0cm 95% 4mph 4mph 1019mB
9:00 3672m 8°C 8_2 0cm 93% 2mph 2mph 1018mB
12:00 3709m 12°C 12_3 0cm 95% 3mph 2mph 1017mB
15:00 3808m 12°C 12_1 0cm 98% 1mph 1mph 1017mB
18:00 3861m 12°C 12_2 0cm 74% 2mph 3mph 1017mB
21:00 3894m 6°C 6_6 0cm 11% 6mph 6mph 1019mB
0:00 3921m 6°C 6_4 0cm 53% 4mph 5mph 1020mB
3:00 3917m 5°C 5_5 0cm 97% 5mph 5mph 1020mB
6:00 3938m 5°C 5_3 0cm 97% 3mph 3mph 1020mB
9:00 3967m 9°C 9_4 0cm 98% 4mph 3mph 1019mB
12:00 3968m 12°C 12_6 0cm 98% 6mph 6mph 1019mB
15:00 3926m 12°C 12_4 0cm 100% 4mph 5mph 1019mB
18:00 3727m 12°C 12_6 0cm 100% 6mph 6mph 1020mB
21:00 3752m 7°C 7_7 0cm 100% 7mph 7mph 1022mB
0:00 3917m 7°C 7_4 0cm 100% 4mph 4mph 1022mB
3:00 4021m 5°C 5_4 0cm 98% 4mph 5mph 1021mB
6:00 3976m 5°C 5_4 0cm 91% 4mph 5mph 1020mB
9:00 3947m 9°C 9_5 0cm 81% 5mph 5mph 1020mB
12:00 3954m 14°C 14_5 0cm 89% 5mph 4mph 1018mB
15:00 3943m 14°C 14_4 0cm 99% 4mph 5mph 1017mB
18:00 3840m 14°C 14_1 0cm 100% 1mph 2mph 1018mB
21:00 3775m 8°C 8_3 0cm 99% 3mph 3mph 1020mB
0:00 3807m 7°C 7_2 0cm 99% 2mph 3mph 1019mB
3:00 3851m 4°C 4_4 0cm 87% 4mph 6mph 1019mB
6:00 3832m 4°C 4_1 0cm 90% 1mph 2mph 1019mB
9:00 3863m 9°C 9_6 0cm 99% 6mph 7mph 1017mB
12:00 3795m 12°C 12_8 0cm 99% 8mph 9mph 1016mB
15:00 3798m 12°C 12_8 0cm 98% 8mph 8mph 1015mB
18:00 3765m 12°C 12_6 0cm 98% 6mph 7mph 1015mB
21:00 3795m 8°C 8_2 0cm 100% 2mph 3mph 1017mB
0:00 3738m 6°C 6_1 0cm 92% 1mph 2mph 1018mB
3:00 3727m 5°C 5_1 0cm 77% 1mph 3mph 1017mB
6:00 3684m 5°C 5_3 0cm 84% 3mph 4mph 1017mB
9:00 3626m 8°C 8_7 0cm 87% 7mph 8mph 1016mB
12:00 3714m 11°C 11_7 0cm 90% 7mph 8mph 1015mB
15:00 3830m 12°C 12_6 0cm 93% 6mph 6mph 1014mB
18:00 3909m 12°C 12_4 0cm 91% 4mph 5mph 1015mB
21:00 3972m 7°C 7_1 0cm 84% 1mph 1mph 1016mB
0:00 3937m 6°C 6_2 0cm 69% 2mph 3mph 1016mB
3:00 3966m 5°C 5_3 0cm 40% 3mph 4mph 1016mB
6:00 3952m 4°C 4_1 0cm 36% 1mph 1mph 1015mB
9:00 3911m 9°C 9_6 0cm 30% 6mph 6mph 1014mB
12:00 3962m 13°C 13_8 0cm 47% 8mph 8mph 1013mB
15:00 4008m 14°C 14_7 0cm 36% 7mph 8mph 1012mB
18:00 3952m 14°C 14_5 0cm 28% 5mph 6mph 1013mB
21:00 3924m 7°C 7_1 0cm 61% 1mph 1mph 1015mB
0:00 3935m 6°C 6_2 0cm 81% 2mph 3mph 1016mB
3:00 3921m 5°C 5_3 0cm 99% 3mph 3mph 1015mB
6:00 3880m 4°C 4_1 0cm 79% 1mph 1mph 1016mB
9:00 3815m 9°C 9_6 0cm 32% 6mph 5mph 1015mB
12:00 3865m 14°C 14_7 0cm 46% 7mph 6mph 1015mB
15:00 3953m 13°C 13_4 0cm 73% 4mph 3mph 1014mB
18:00 3934m 13°C 13_2 0cm 76% 2mph 2mph 1015mB
21:00 3895m 8°C 8_6 0cm 53% 6mph 6mph 1017mB
0:00 3860m 7°C 7_5 0cm 46% 5mph 6mph 1017mB
3:00 3845m 5°C 5_5 0cm 11% 5mph 6mph 1017mB
6:00 3822m 5°C 5_4 0cm 24% 4mph 4mph 1017mB
9:00 3768m 10°C 10_5 0cm 27% 5mph 4mph 1017mB
12:00 3858m 15°C 15_5 0cm 26% 5mph 4mph 1016mB
15:00 3930m 15°C 15_4 0cm 46% 4mph 3mph 1016mB
18:00 3980m 15°C 15_1 0cm 48% 1mph 1mph 1016mB
Morning 1.40625mm 16.75 4017m 9°C 9_4 0cm 63% 4mph 6mph 1018mB
Afternoon 0.359375mm 4.1875 4115m 18°C 18_3 0cm 67% 3mph 4mph 1015mB
Morning 0.71875mm 7.1875 3989m 10°C 10_2 0cm 98% 2mph 3mph 1014mB
Afternoon 1.48438mm 8.0625 3901m 16°C 16_4 0cm 99% 4mph 4mph 1012mB
Morning 1.93229mm 5.5625 3368m 8°C 8_8 0cm 100% 8mph 11mph 1013mB
Afternoon 0.828125mm 4.9375 3178m 12°C 12_9 0cm 80% 9mph 15mph 1013mB
Morning 0.322917mm 3.125 3224m 4°C 4_9 0cm 75% 9mph 15mph 1014mB
Afternoon 0.1875mm 1.625 3448m 17°C 17_4 0cm 80% 4mph 5mph 1010mB
Morning 1.5mm 3.125 3024m 6°C 6_8 0cm 99% 8mph 12mph 1012mB
Afternoon 0.692708mm 3.3125 3176m 11°C 11_9 0cm 75% 9mph 14mph 1012mB
Morning 0mm 0 3436m 4°C 4_11 0cm 23% 11mph 17mph 1015mB
Afternoon 0mm 0 3498m 16°C 16_8 0cm 84% 8mph 12mph 1013mB

16 day outlook at a glance

Forecast issued: 23/05/2018 04:27:49

Chat

Your comments and questions. In a resort? Let us know what it's like!


Characters left 250

For terms and conditions see Readers Comments on the Cookie and privacy policy page.